SL-14 DEB, 45321

Orbit data source: Space-Track

SL-14 DEB, 45321 is space debris in LEO originally from a launch on Thu, 15 Aug 1991 UTC launched from the Plesetsk Missile And Space Complex (PKMTR). Debris objects in space refer to the collection of defunct objects orbiting the Earth. Examples of debris include non-operational satellites, rocket bodies, and fragments generated from explosions, collisions, or faulty payload assembly.

Loading next visibility...
Identifier
45321, 1991-056BK
Orbit
LEO
Country
Flag of CISCIS
Related business
Manufacturer
Unknown
Mission
Spacecraft
Bus & Motor
Unknown
Mass
Unknown
Launch date (UTC)
1991-08-15 (34 years ago)
Launch vehicle
Unknown
Launch site
Plesetsk Missile And Space Complex (PKMTR)
Object type
Payload
Rocket body
Debris
Shape & HBR
Unknown shape, 0.1 m
Radar Cross Section
Small (<0.1 m²)

Expand to show TLE details & history
Last TLE update: 11 hours ago

TLE from 11 hours ago
0 SL-14 DEB
1 45321U 91056BK  26035.49239051  .00000126  00000-0  28446-3 0  9991
2 45321  82.5581 228.5146 0023084  68.0340 292.3234 13.19459064285879
Epoch: 2026-02-04T11:49Z
TLE epoch observation values (Epoch: 2026-02-04T11:49:02.540Z)
Latitude
0.00001°
Longitude
-83.40417°
Altitude
1,182.998 km
Speed
7.265 km/s
True Right ascension
15h 14m 03s
True Declination
0° 00' 00"
Sunlit
Object was in daylight at epoch
Visualization orbit readout
Latitude
Unknown
Longitude
Unknown
Altitude
Unknown
Speed
Unknown
Apparent Right ascension
Unknown
Apparent Declination
Unknown
Sunlit
N/A
Visualization observer readout
Local Sidereal Time
00:43:31
Azimuth
Unknown
Elevation
Unknown
Doppler factor
Unknown
Orbital elements
Apogee altitude
1,201.484 km
Perigee altitude
1,166.571 km
Semi-major axis
7,562.165 km
Eccentricity
0.00231
Inclination
82.5581°
RAAN
228.5146°
Arg. of periapsis
68.034°
True anomaly
292.07843°
Mean anomaly
292.3234°
Eccentric anomaly
292.20094°
Mean motion
3.30046 °/min
Orbital period
109.08 mins
BSTAR
0.00028446
Loading maneuver chart data...
Computing Atmospheric mass density...
Loading historical data...
Loading historical data...
Loading historical data...
Loading historical data...
Loading historical data...
Loading historical data...
Loading historical data...

Documentation

Showing up to 5 results
|